DELTA 1 DEB, 7131

Orbit data source: Space-Track

DELTA 1 DEB, 7131 is space debris in SSO originally from a launch on Tue, 06 Nov 1973 UTC launched from the Air Force Western Test Range (AFWTR). Debris objects in space refer to the collection of defunct objects orbiting the Earth. Examples of debris include non-operational satellites, rocket bodies, and fragments generated from explosions, collisions, or faulty payload assembly.

Loading next visibility...
Identifier
7131, 1973-086CV
Orbit
SSO
Country
Flag of USUS
Related business
Manufacturer
Unknown
Mission
Spacecraft
Bus & Motor
Unknown
Mass
Unknown
Launch date (UTC)
1973-11-06 (52 years ago)
Launch vehicle
Unknown
Launch site
Air Force Western Test Range (AFWTR)
Object type
Payload
Rocket body
Debris
Shape & HBR
Unknown shape, 0.1 m
Radar Cross Section
Small (<0.1 m²)

Expand to show TLE details & history
Last TLE update: 11 hours ago

TLE from 11 hours ago
0 DELTA 1 DEB
1 07131U 73086CV  25295.78126000  .00000340  00000-0  37391-2 0  9995
2 07131 101.8981 246.9798 0177961 333.7342  52.9507 12.15002770296597
Epoch: 2025-10-22T18:45Z
TLE epoch observation values (Epoch: 2025-10-22T18:45:00.864Z)
Latitude
27.71269°
Longitude
-72.04703°
Altitude
1,533.375 km
Speed
7.139 km/s
True Right ascension
16h 02m 37s
True Declination
27° 35' 07"
Sunlit
Object was in daylight at epoch
Visualization orbit readout
Latitude
Unknown
Longitude
Unknown
Altitude
Unknown
Speed
Unknown
Apparent Right ascension
Unknown
Apparent Declination
Unknown
Sunlit
N/A
Visualization observer readout
Local Sidereal Time
01:19:51
Azimuth
Unknown
Elevation
Unknown
Doppler factor
Unknown
Orbital elements
Apogee altitude
1,754.175 km
Perigee altitude
1,469.789 km
Semi-major axis
7,990.119 km
Eccentricity
0.0178
Inclination
101.8981°
RAAN
246.9798°
Arg. of periapsis
333.7342°
True anomaly
54.60016°
Mean anomaly
52.9507°
Eccentric anomaly
53.77323°
Mean motion
3.03888 °/min
Orbital period
118.46 mins
BSTAR
0.0037391
Loading maneuver chart data...
Computing Atmospheric mass density...
Loading historical data...
Loading historical data...
Loading historical data...
Loading historical data...
Loading historical data...
Loading historical data...
Loading historical data...

Documentation

Showing up to 5 results
|